TimeCST,TemperatureF,Dew PointF,Humidity,Sea Level PressureIn,VisibilityMPH,Wind Direction,Wind SpeedMPH,Gust SpeedMPH,PrecipitationIn,Events,Conditions,WindDirDegrees,DateUTC
12:53 AM,-6.0,-11.0,79,29.98,10.0,South,5.8,-,N/A,,Overcast,180,2013-12-10 06:53:00
1:53 AM,-4.0,-9.0,79,29.93,5.0,SSE,5.8,-,0.00,Snow,Light Snow,160,2013-12-10 07:53:00
2:11 AM,-4.0,-9.4,78,29.80,2.5,SE,5.8,-,0.00,Snow,Light Snow,130,2013-12-10 08:11:00
2:29 AM,-5.8,-11.2,77,29.80,3.0,East,4.6,-,0.00,Snow,Light Snow,100,2013-12-10 08:29:00
2:53 AM,-5.1,-11.0,76,29.88,3.0,ENE,3.5,-,0.00,Snow,Light Snow,70,2013-12-10 08:53:00
3:22 AM,-5.8,-9.4,84,29.77,2.0,SSE,6.9,-,0.00,Snow,Light Snow,150,2013-12-10 09:22:00
3:37 AM,-5.8,-9.4,84,29.76,1.5,SSE,3.5,-,0.00,Snow,Light Snow,160,2013-12-10 09:37:00
3:53 AM,-5.1,-9.9,80,29.87,1.2,SSE,3.5,-,0.00,Snow,Light Snow,160,2013-12-10 09:53:00
4:31 AM,-5.8,-9.4,84,29.76,1.0,Calm,Calm,-,0.01,Snow,Light Snow,0,2013-12-10 10:31:00
4:45 AM,-5.8,-9.4,84,29.76,1.5,Calm,Calm,-,0.01,Snow,Light Snow,0,2013-12-10 10:45:00
4:53 AM,-4.0,-9.9,76,29.87,1.8,Calm,Calm,-,0.01,Snow,Light Snow,0,2013-12-10 10:53:00
5:32 AM,-4.0,-9.4,78,29.77,3.0,Calm,Calm,-,0.00,Snow,Light Snow,0,2013-12-10 11:32:00
5:41 AM,-5.8,-9.4,84,29.76,5.0,Calm,Calm,-,0.00,Snow,Light Snow,0,2013-12-10 11:41:00
5:53 AM,-6.0,-11.0,79,29.88,7.0,Calm,Calm,-,0.00,,Overcast,0,2013-12-10 11:53:00
6:31 AM,-9.4,-14.8,77,29.76,9.0,Calm,Calm,-,N/A,,Mostly Cloudy,0,2013-12-10 12:31:00
6:53 AM,-9.9,-15.0,78,29.89,10.0,Calm,Calm,-,N/A,,Partly Cloudy,0,2013-12-10 12:53:00
7:53 AM,-15.0,-20.0,78,29.93,6.0,Calm,Calm,-,N/A,,Haze,0,2013-12-10 13:53:00
8:53 AM,-11.0,-16.1,78,29.96,10.0,Calm,Calm,-,N/A,,Clear,0,2013-12-10 14:53:00
9:53 AM,-4.0,-9.9,76,29.99,10.0,WSW,4.6,-,N/A,,Partly Cloudy,240,2013-12-10 15:53:00
10:53 AM,-0.9,-7.1,75,29.98,10.0,SW,4.6,-,N/A,,Clear,230,2013-12-10 16:53:00
11:53 AM,1.0,-6.0,72,30.01,10.0,Variable,6.9,-,N/A,,Clear,0,2013-12-10 17:53:00
12:53 PM,1.9,-5.1,72,30.02,10.0,West,8.1,-,0.00,,Partly Cloudy,260,2013-12-10 18:53:00
1:53 PM,1.9,-5.1,72,30.03,10.0,Variable,5.8,-,N/A,,Scattered Clouds,0,2013-12-10 19:53:00
2:09 PM,3.2,-5.8,66,29.93,10.0,Variable,6.9,-,N/A,,Mostly Cloudy,0,2013-12-10 20:09:00
2:23 PM,3.2,-4.0,72,29.94,10.0,Variable,5.8,-,N/A,,Scattered Clouds,0,2013-12-10 20:23:00
2:32 PM,3.2,-5.8,66,29.94,10.0,Variable,5.8,-,N/A,,Mostly Cloudy,0,2013-12-10 20:32:00
2:44 PM,1.4,-5.8,72,29.95,10.0,WSW,9.2,-,N/A,,Scattered Clouds,240,2013-12-10 20:44:00
2:53 PM,1.9,-5.1,72,30.06,10.0,WSW,9.2,-,N/A,,Scattered Clouds,240,2013-12-10 20:53:00
3:53 PM,1.9,-6.0,69,30.08,10.0,WSW,5.8,-,N/A,,Scattered Clouds,240,2013-12-10 21:53:00
4:53 PM,-0.0,-7.1,72,30.09,10.0,Calm,Calm,-,N/A,,Clear,0,2013-12-10 22:53:00
5:53 PM,-0.9,-7.1,75,30.12,10.0,Calm,Calm,-,N/A,,Partly Cloudy,0,2013-12-10 23:53:00
6:53 PM,-4.0,-9.0,79,30.15,10.0,Calm,Calm,-,N/A,,Clear,0,2013-12-11 00:53:00
7:53 PM,-9.0,-14.1,79,30.18,10.0,Calm,Calm,-,N/A,,Clear,0,2013-12-11 01:53:00
8:53 PM,-8.0,-13.0,79,30.20,10.0,Calm,Calm,-,N/A,,Overcast,0,2013-12-11 02:53:00
9:07 PM,-7.6,-13.0,77,30.08,4.0,Calm,Calm,-,0.00,Snow,Light Snow,0,2013-12-11 03:07:00
9:25 PM,-5.8,-11.2,77,30.08,2.0,Calm,Calm,-,0.00,Snow,Light Snow,0,2013-12-11 03:25:00
9:33 PM,-5.8,-11.2,77,30.08,1.8,Calm,Calm,-,0.00,Snow,Light Snow,0,2013-12-11 03:33:00
9:53 PM,-6.0,-9.9,83,30.21,2.0,Calm,Calm,-,0.00,Snow,Light Snow,0,2013-12-11 03:53:00
10:51 PM,-4.0,-9.4,78,30.12,4.0,Calm,Calm,-,0.00,Snow,Light Snow,0,2013-12-11 04:51:00
10:53 PM,-4.0,-9.0,79,30.23,5.0,Calm,Calm,-,0.00,Snow,Light Snow,0,2013-12-11 04:53:00
11:28 PM,-5.8,-11.2,77,30.14,8.0,Calm,Calm,-,0.00,,Scattered Clouds,0,2013-12-11 05:28:00
11:53 PM,-5.1,-9.9,80,30.27,10.0,Calm,Calm,-,0.00,,Partly Cloudy,0,2013-12-11 05:53:00